FW1655 Weather Reports


time (UTC)temp
C
wind
direction
speed
KPH
gust
KPH
rain 1hr
cm
rain 24hr
cm
rain mn
cm
humidity
%
barometer
mb
20181218104558 -17 0.0 0.0 0.00 0.00 0.00 1030.8
20181218103051 -17 0.0 0.0 0.00 0.00 0.00 1030.6
20181218101600 -17 0.0 0.0 0.00 0.00 0.00 1030.5
20181218100024 -17 0.0 0.0 0.00 0.00 0.00 1030.3
20181218094549 -17 0.0 0.0 0.00 0.00 0.00 1030.1
20181218093011 -17 0.0 0.0 0.00 0.00 0.00 1029.7
20181218091507 -17 0.0 0.0 0.00 0.00 0.00 1029.5
20181218090242 -17 0.0 0.0 0.00 0.00 0.00 1029.2
20181218084657 -17 0.0 0.0 0.00 0.00 0.00 1029.0
20181218083130 -17 0.0 0.0 0.00 0.00 0.00 1028.6
20181218081621 -17 0.0 0.0 0.00 0.00 0.00 1028.4
20181218080122 -17 0.0 0.0 0.00 0.00 0.00 1028.0
20181218074701 -17 0.0 0.0 0.00 0.00 0.00 1027.7
20181218073101 -17 0.0 0.0 0.00 0.00 0.00 1027.7
20181218071556 -17 0.0 0.0 0.00 0.00 0.00 1027.6
20181218070040 -17 0.0 0.0 0.00 0.00 0.00 1027.2
20181218064556 -17 0.0 0.0 0.00 0.00 0.00 1026.9
20181218063110 -17 0.0 0.0 0.00 0.00 0.00 1026.7
20181218061516 -17 0.0 0.0 0.00 0.00 0.00 1026.5
20181218060013 -17 0.0 0.0 0.00 0.00 0.00 1026.3
20181218054509 1 319 11.3 22.5 0.00 0.00 0.00 91 1025.9
20181218053202 2 294 0.0 9.7 0.00 0.00 0.00 82 1025.6
20181218051618 2 285 0.0 6.4 0.00 0.00 0.00 81 1025.5
20181218050243 2 344 1.6 11.3 0.00 0.00 0.00 82 1025.6
20181218044729 2 16 0.0 9.7 0.00 0.08 0.00 83 1025.7
20181218043153 2 307 0.0 3.2 0.00 0.08 0.00 83 1025.8
20181218041656 2 311 0.0 8.0 0.00 0.08 0.00 82 1026.0
20181218040214 2 9 0.0 1.6 0.00 0.08 0.00 83 1026.1
20181218034613 2 329 0.0 8.0 0.00 0.13 0.00 83 1026.2
20181218033158 2 301 3.2 11.3 0.00 0.13 0.00 83 1026.3
20181218031641 2 300 1.6 9.7 0.00 0.13 0.00 83 1026.2
20181218030216 2 307 0.0 11.3 0.00 0.13 0.00 82 1026.3
20181218024714 2 255 0.0 9.7 0.00 0.18 0.00 81 1026.3
20181218023245 2 20 3.2 12.9 0.00 0.18 0.00 81 1026.4
20181218021643 2 333 1.6 11.3 0.00 0.18 0.00 81 1026.4
20181218020113 2 340 0.0 9.7 0.00 0.18 0.00 82 1026.4
20181218014641 2 319 1.6 12.9 0.00 0.41 0.00 83 1026.5
20181218013124 2 321 0.0 8.0 0.00 0.41 0.00 84 1026.5
20181218011600 2 331 0.0 3.2 0.00 0.41 0.00 84 1026.6
20181218010124 2 313 1.6 9.7 0.00 0.41 0.00 83 1026.7
20181218004609 2 360 0.0 12.9 0.00 0.84 0.00 82 1026.6
20181218003116 2 313 0.0 12.9 0.00 0.84 0.00 81 1026.6
20181218001646 2 34 3.2 12.9 0.00 0.84 0.00 81 1026.6
20181218000055 2 325 1.6 8.0 0.00 0.84 0.00 82 1026.7
20181217234610 2 339 1.6 8.0 0.00 1.32 0.00 81 1026.5
20181217233113 3 326 1.6 9.7 0.00 1.32 0.00 81 1026.5
20181217231542 3 329 6.4 12.9 0.00 1.32 0.00 82 1026.3
20181217230052 3 326 4.8 14.5 0.00 1.32 0.00 83 1026.1
20181217224555 3 345 4.8 14.5 0.00 1.40 0.00 84 1026.1
20181217223048 3 302 0.0 12.9 0.00 1.40 0.00 85 1026.0
20181217221627 3 326 0.0 12.9 0.00 1.40 0.00 85 1026.0
20181217220103 3 273 3.2 9.7 0.00 1.40 0.00 86 1026.0
20181217214528 3 312 0.0 9.7 0.00 1.40 0.00 86 1025.8
20181217213108 3 304 0.0 9.7 0.00 1.40 0.00 85 1025.9
20181217211601 3 288 4.8 16.1 0.00 1.40 0.00 85 1025.8
20181217210045 3 312 1.6 9.7 0.00 1.40 0.00 85 1025.7
20181217204545 3 338 4.8 14.5 0.00 1.40 0.00 86 1025.6
20181217203057 3 329 0.0 8.0 0.00 1.40 0.00 86 1025.7
20181217201535 3 27 0.0 8.0 0.00 1.40 0.00 86 1025.8
20181217200036 3 309 1.6 11.3 0.00 1.40 0.00 86 1025.6
20181217194633 3 342 1.6 12.9 0.00 1.40 0.00 87 1025.8
20181217193031 3 308 1.6 9.7 0.00 1.40 0.00 89 1025.8
20181217191526 3 326 3.2 12.9 0.00 1.40 0.00 89 1025.8
20181217190035 3 329 1.6 17.7 0.00 1.40 0.00 88 1026.0
20181217184522 3 312 6.4 14.5 0.00 1.40 0.00 89 1026.2
20181217183020 3 300 0.0 9.7 0.00 1.40 0.00 92 1026.4
20181217181521 3 306 0.0 0.0 0.00 1.40 0.00 94 1026.5
20181217180013 3 322 0.0 8.0 0.00 1.40 0.00 95 1026.7
20181217174507 3 318 0.0 9.7 0.00 1.40 0.00 96 1026.8
20181217173013 3 319 0.0 3.2 0.00 1.40 0.00 98 1026.9
20181217171726 2 311 0.0 4.8 0.00 1.40 0.00 99 1027.0
20181217170224 2 349 0.0 4.8 0.00 1.40 0.00 100 1027.2
20181217164624 2 316 3.2 9.7 0.00 1.42 0.00 100 1027.5
20181217163140 2 291 3.2 11.3 0.00 1.42 0.00 100 1027.7
20181217161702 2 328 0.0 6.4 0.00 1.42 0.00 100 1027.5
20181217160141 2 302 0.0 6.4 0.00 1.42 0.00 100 1027.6
20181217154623 2 23 0.0 8.0 0.00 1.42 0.00 100 1028.1
20181217153100 2 326 1.6 8.0 0.00 1.42 0.00 100 1028.6
20181217151615 2 1 0.0 11.3 0.00 1.42 0.00 100 1028.8
20181217150137 1 352 0.0 9.7 0.00 1.42 0.00 100 1029.0
20181217144600 1 20 1.6 11.3 0.00 1.42 0.00 100 1029.3
20181217143122 1 41 4.8 16.1 0.00 1.42 0.00 100 1029.3
20181217141606 1 345 3.2 12.9 0.00 1.42 0.00 100 1029.6
20181217140112 1 30 0.0 6.4 0.00 1.42 0.00 100 1029.6
20181217134548 1 347 0.0 6.4 0.00 1.42 0.00 100 1029.5
20181217133039 1 10 0.0 9.7 0.00 1.42 0.00 100 1029.4
20181217131548 1 343 3.2 11.3 0.00 1.42 0.00 100 1029.4
20181217130037 1 34 1.6 11.3 0.00 1.42 0.00 100 1029.6
20181217124549 1 41 0.0 12.9 0.00 1.42 0.00 100 1029.5
20181217123022 1 39 1.6 6.4 0.00 1.42 0.00 100 1029.5
20181217121523 1 335 0.0 14.5 0.00 1.42 0.00 100 1029.5
20181217120026 -17 0.0 0.0 0.00 1.42 0.00 1029.4
20181217114526 -17 0.0 0.0 0.00 1.42 0.00 1029.4
20181217113007 -17 0.0 0.0 0.00 1.42 0.00 1029.5
20181217111730 -17 0.0 0.0 0.00 1.42 0.00 1029.7
20181217110217 -17 0.0 0.0 0.00 1.42 0.00 1029.5